• Processing (Info)

  • MPEC 1995-P03 : 1994 TF2

    The following Minor Planet Electronic Circular may be linked-to from your own Web pages, but must not otherwise be redistributed electronically.

    A form allowing access to any MPEC is at the bottom of this page.


    Read MPEC 1995-P02 Read MPEC 1995-P04


    M.P.E.C. 1995-P03                                Issued 1995 Aug. 7, 12:50 UT
    
         The Minor Planet Electronic Circulars contain information on unusual
             minor planets and routine data on comets.  They are published
       on behalf of Commission 20 of the International Astronomical Union by the
              Minor Planet Center, Smithsonian Astrophysical Observatory,
                              Cambridge, MA 02138, U.S.A.
    
                 BMARSDEN@CFA.HARVARD.EDU or GWILLIAMS@CFA.HARVARD.EDU
    
                                       1994 TF2
    
                               Revision to MPEC 1994-T12
    
    Observations:
         J94T02F  C1995 08 03.03659 01 13 58.55 +28 07 53.6          20.1 V      557
         J94T02F  C1995 08 03.04418 01 13 59.17 +28 07 50.1                      557
         J94T02F VC1995 08 06.74781 01 18 55.95 +27 31 38.2                      413
         J94T02F VC1995 08 06.75185 01 18 56.14 +27 31 35.2                      413
    
    Observer details:
    413 Siding Spring Observatory.  Observers D. J. Asher, G. J. Garradd,
        R. H. McNaught, D. I. Steel.  Measurer R. H. McNaught.  1.0-m reflector
        + CCD.
    557 Ondrejov.  Observer P. Pravec.  0.65-m f/3.6 reflector + CCD.
    
    Orbital elements:
    1994 TF2
    Id. P. Pravec (1995 observations), R. H. McNaught (1995 observations)
    Epoch 1995 Oct. 10.0 TT = JDT 2450000.5                 Williams
    M 228.87523              (2000.0)            P               Q
    n   0.99570909     Peri.  349.60865     -0.96693805     -0.25290322
    a   0.9932252      Node   175.34070     +0.25317252     -0.96741160
    e   0.2837511      Incl.   23.75551     +0.03056921     +0.01243991
    P   0.99           H   19.0           G   0.15           U   4
    Residuals in seconds of arc
    941005 413  0.8-  0.5+    941111 413  0.7+  0.5+    941221 413  0.6-  0.1-
    941005 413  0.6-  1.3-    941112 413  1.4+  0.6-    941221 413  0.2-  0.1-
    941007 474  0.5+  0.0     941112 413  0.9+  0.3+    950803 557  0.1+  0.8+
    941011 413 (0.4-  2.8-)   941220 413  0.1-  0.2-    950803 557  0.4+  1.0+
    941011 413  0.7+  0.2-    941220 413  0.7-  0.1-    950806 413  0.5+  0.4-
    941012 413  0.5-  0.4+    941220 413  0.3-  0.2+    950806 413  0.8-  0.7-
    941111 413  0.4+  0.9+    941221 413  0.6-  0.1+
    
    Ephemeris:
    1994 TF2                 a,e,i = 0.99, 0.28, 24                  q = 0.7114
    Date    TT    R. A. (2000) Decl.     Delta      r     Elong.  Phase     V
    1995 08 01    01 11.10   +28 24.2    0.593    1.264   100.3    52.2    20.3
    1995 08 06    01 17.96   +27 39.6    0.557    1.268   103.8    50.9    20.1
    1995 08 11    01 24.17   +26 36.9    0.520    1.272   107.6    49.4    19.9
    1995 08 16    01 29.63   +25 12.6    0.484    1.274   111.8    47.6    19.7
    1995 08 21    01 34.19   +23 21.4    0.447    1.275   116.4    45.3    19.5
    1995 08 26    01 37.67   +20 57.2    0.411    1.275   121.5    42.5    19.2
    1995 08 31    01 39.89   +17 52.4    0.376    1.273   127.2    39.2    19.0
    1995 09 05    01 40.67   +13 58.5    0.344    1.270   133.6    35.1    18.6
    1995 09 10    01 39.83   +09 07.1    0.315    1.266   140.4    30.5    18.3
    1995 09 15    01 37.17   +03 12.3    0.290    1.260   147.5    25.4    18.0
    1995 09 20    01 32.48   -03 44.9    0.271    1.253   153.7    20.8    17.7
    1995 09 25    01 25.68   -11 30.7    0.259    1.245   156.7    18.6    17.5
    1995 09 30    01 16.85   -19 36.8    0.254    1.236   154.3    20.6    17.5
    1995 10 05    01 06.28   -27 26.7    0.257    1.225   147.5    26.0    17.7
    1995 10 10    00 54.41   -34 28.2    0.267    1.213   139.1    32.6    17.9
    1995 10 15    00 41.87   -40 22.5    0.282    1.200   130.6    39.1    18.2
    1995 10 20    00 29.35   -45 05.4    0.300    1.186   122.7    45.0    18.5
    1995 10 25    00 17.61   -48 43.0    0.322    1.170   115.6    50.0    18.7
    1995 10 30    00 07.26   -51 25.9    0.344    1.153   109.3    54.4    19.0
    1995 11 04    23 58.69   -53 26.3    0.366    1.135   103.7    58.1    19.2
    1995 11 09    23 51.99   -54 54.8    0.387    1.116    98.6    61.3    19.4
    1995 11 14    23 47.12   -55 59.9    0.407    1.096    94.0    64.2    19.5
    1995 11 19    23 43.91   -56 47.9    0.425    1.075    89.9    66.8    19.7
    1995 11 24    23 42.13   -57 23.9    0.440    1.053    86.0    69.3    19.8
    1995 11 29    23 41.50   -57 52.2    0.453    1.030    82.4    71.7    19.9
    1995 12 04    23 41.65   -58 16.0    0.463    1.006    79.0    74.1    19.9
    1995 12 09    23 42.15   -58 37.8    0.469    0.982    75.8    76.6    20.0
    1995 12 14    23 42.55   -58 59.4    0.471    0.957    72.7    79.3    20.0
    1995 12 19    23 42.34   -59 22.0    0.470    0.931    69.6    82.1    20.1
    1995 12 24    23 40.91   -59 46.6    0.465    0.906    66.6    85.3    20.1
    1995 12 29    23 37.45   -60 13.6    0.456    0.880    63.5    88.9    20.1
    1996 01 03    23 30.87   -60 41.5    0.443    0.855    60.3    92.9    20.2
    1996 01 08    23 19.81   -61 06.1    0.428    0.831    56.9    97.5    20.3
    1996 01 13    23 02.86   -61 18.1    0.410    0.807    53.2   102.8    20.4
    1996 01 18    22 38.92   -61 00.8    0.391    0.786    49.1   108.7    20.5
    1996 01 23    22 08.29   -59 48.8    0.372    0.766    44.7   115.3    20.8
    1996 01 28    21 33.75   -57 11.8    0.356    0.748    40.1   122.1    21.1
    
    Gareth V. Williams                                            M.P.E.C. 1995-P03
    

    Read MPEC 1995-P02 Read MPEC 1995-P04


    MPEC number:

    Enter an MPEC number in one of the following forms:

    • 1997-B01 (the full form)
    • J97B01 (the packed version of the full form)
    • B01 (the abbreviated form)